date,batt_volt,AirTemp_C,Solar_kW,RH,Manual_BP,StationID,WS_ms,PTemp,WS_15min_max,Prog_Sig,Solar_Raw,Bar_mbar,Solar_MJ,Max_WS_2min,Pressure_Raw,Rain_mm,WD_15min_ave,Max_AirTemp_1min,WindDir,WS_15min_med,WS_15min_ave,Elevation_Correction
2022-03-01T14:12:18Z,13.92377,-9.981858,0.3124552,48.81773,0,1156,2.0972,-8.73449,4.8412,43690,21.87187,1026.643,0.001562276,2.038,1024.843,0,286.353749945,-9.91,330.941,2.548,2.41949822249,1.80078
2022-03-01T14:27:20Z,13.89444,-9.476408,0.40817,50.64605,0,1156,1.5484,-7.905342,3.8416,43690,28.5719,1026.643,0.00204085,3.881,1024.843,0,293.571108098,-9.78,290.7104,2.1168,2.13328705824,1.80078
2022-03-01T14:42:18Z,13.8722,-9.408552,0.4965901,52.27738,0,1156,3.2732,-7.082978,3.7632,43690,34.76131,1026.643,0.00248295,3.724,1024.843,0,295.147765802,-9.41,300.7003,2.5284,2.47087573964,1.80078
2022-03-01T14:57:21Z,13.84234,-8.835895,0.5260361,56.04101,0,1156,4.5472,-6.292236,5.6252,43690,36.82252,1026.643,0.00263018,3.998,1024.843,0,287.805871535,-8.429999,278.7892,3.5084,3.57538588235,1.80078
2022-03-01T15:12:23Z,13.82336,-8.806926,0.5946149,58.75035,0,1156,6.0172,-5.657387,7.154,43690,41.62304,1025.968,0.002973074,6.88,1024.168,0,281.411200888,-8.53,291.6273,4.998,5.01517881765,1.80078
2022-03-01T15:27:19Z,13.80662,-8.501516,0.6012863,59.70101,0,1156,3.822,-5.069984,6.9384,43690,42.09004,1025.968,0.003006432,4.841,1024.168,0,289.978057596,-8.5,284.6997,4.2924,4.51159526627,1.80078
2022-03-01T15:42:22Z,13.7926,-8.201874,0.6123964,58.43245,0,1156,4.6648,-4.57069,6.3504,43690,42.86775,1025.968,0.003061982,5.723,1024.168,0,288.307502363,-7.794,297.6213,4.3414,4.41818588235,1.80078
2022-03-01T15:57:23Z,13.77445,-7.186913,0.7332322,57.88147,0,1156,5.586,-4.073654,7.3892,43690,51.32626,1025.968,0.003666161,7.389001,1024.168,0,282.413853363,-6.983,291.2643,5.047,4.80430586471,1.80078
2022-03-01T16:12:19Z,13.76321,-7.357315,0.5349338,61.61689,0,1156,4.1356,-3.513359,7.271599,43690,37.44536,1025.46,0.002674669,5.625,1023.66,0,280.175192944,-7.12,289.6917,5.7036,5.72447571006,1.80078
2022-03-01T16:27:22Z,13.75214,-6.610042,0.7228411,57.50681,0,1156,7.2324,-3.127029,7.6832,43690,50.59888,1025.46,0.003614206,6.938,1023.66,0,277.395669884,-6.542,282.7701,5.5076,5.55590820588,1.80078
2022-03-01T16:42:23Z,13.74469,-6.648659,0.7160729,60.55544,0,1156,5.7036,-2.763287,8.878799,43690,50.1251,1025.46,0.003580364,6.88,1023.66,0,276.204977642,-6.445,277.3775,6.4582,6.49878341765,1.80078
2022-03-01T16:57:25Z,13.73244,-6.41312,0.7039934,59.70246,0,1156,5.292,-2.568993,9.4864,43690,49.27953,1025.46,0.003519967,9.49,1023.66,0,280.420513211,-6.277,296.8418,6.3112,6.3937505,1.80078
2022-03-01T17:12:22Z,13.7314,-6.551533,0.694813,59.25642,0,1156,6.1544,-2.462807,8.741599,43690,48.6369,1024.01,0.003474065,7.762001,1022.209,0,277.016498221,-6.246,285.6801,6.781599,6.69032648521,1.80078
2022-03-01T17:27:23Z,13.71986,-5.635674,0.6841627,61.36002,0,1156,6.9384,-2.376957,9.1924,43690,47.89139,1024.01,0.003420814,9.09,1022.209,0,273.318911112,-5.602,264.8895,6.9972,7.11422338235,1.80078
2022-03-01T17:42:25Z,13.71429,-5.738407,0.6638384,58.4043,0,1156,8.7612,-2.227844,9.6628,43690,46.46868,1024.01,0.003319192,9.66,1022.209,0,277.794165149,-5.738,273.0798,7.3793995,7.38331973529,1.80078
2022-03-01T17:57:22Z,13.70876,-5.500839,0.6464358,57.92871,0,1156,8.643599,-2.121662,10.7408,43690,45.25051,1024.01,0.003232179,10.74,1022.209,0,274.554245728,-5.297,298.4411,8.5456,8.58862701183,1.80078
2022-03-01T18:12:25Z,13.70876,-5.331058,0.5889304,52.86928,0,1156,8.859199,-1.907032,10.486,43690,41.22513,1023.648,0.002944652,10.07,1021.847,0,276.976395403,-5.059,272.452,8.5554,8.42995977059,1.80078
2022-03-01T18:27:23Z,13.70323,-5.093368,0.5942141,52.05435,0,1156,9.074799,-1.692402,10.3684,43690,41.59498,1023.648,0.00297107,10.33,1021.847,0,275.685304675,-5.025,260.0843,8.82,8.74635476923,1.80078
2022-03-01T18:43:54Z,13.6977,-5.093368,0.5569936,53.5484,0,1156,9.6628,-1.437107,9.016,43690,38.98955,1023.648,0.002784968,10.54,1021.847,0,260.438819724,-5.331,277.0327,8.9768,8.722,1.80078
2022-03-01T18:58:55Z,13.6977,-4.82172,0.5192802,55.21224,0,1156,9.309999,-1.373848,11.858,43690,36.34962,1023.648,0.002596401,11.31,1021.847,0,276.020636852,-4.89,275.8995,9.0552005,9.10491686585,1.80078
2022-03-01T19:13:56Z,13.6977,-5.025456,0.4816038,56.87608,0,1156,9.3492,-1.373848,12.0344,43690,33.71226,1023.648,0.002408019,11.37,1021.847,0,276.750468696,-4.958,278.2863,9.1042,9.16371686585,1.80078
2022-03-01T19:28:57Z,13.6977,-4.685898,0.4458738,54.73686,0,1156,7.5068,-1.459702,10.3684,43690,31.21117,1023.648,0.002229369,9.979999,1021.847,0,276.850216397,-4.55,276.6951,8.4672,8.45261923171,1.80078
2022-03-01T19:43:58Z,13.6977,-4.617985,0.4009438,55.14433,0,1156,8.486799,-1.480034,10.5448,43690,28.06607,1023.648,0.002004719,8.939999,1021.847,0,270.615059529,-4.618,264.1104,8.0948,8.1380632561,1.80078
2022-03-01T19:58:58Z,13.70876,-4.82172,0.3565231,57.11377,0,1156,7.859599,-1.629143,10.4272,43690,24.95662,1023.648,0.001782616,9.8,1021.847,0,281.464531976,-4.89,280.9383,8.0948,7.99560465854,1.80078
2022-03-01T20:13:59Z,13.71982,-5.025456,0.322239,56.63839,0,1156,6.7032,-2.056145,10.5644,43690,22.55673,1023.893,0.001611195,10.02,1022.092,0,277.611403704,-4.822,291.2086,8.1144,8.26235578049,1.80078
2022-03-01T20:29:00Z,13.74327,-4.8853,0.2613987,55.49074,0,1156,6.389599,-2.697769,9.702,43690,18.29791,1023.893,0.001306993,9.7,1022.092,0,275.7373616,-4.716,281.5999,7.6832,7.58519979268,1.80078
2022-03-01T20:44:01Z,13.7629,-4.776566,0.2140487,60.15497,0,1156,8.722,-3.255806,9.3492,43690,14.98341,1023.893,0.001070243,9.639999,1022.092,0,274.173620932,-4.811,290.3607,7.2226,7.27829245122,1.80078
2022-03-01T20:59:02Z,13.77426,-5.013607,0.0749063,61.27714,0,1156,7.8008,-3.727989,9.329599,43690,5.243441,1023.893,0.0003745315,8.84,1022.092,0,275.416303934,-4.912,281.974,7.1049995,7.20825830488,1.80078
2022-03-01T21:14:03Z,13.77979,-5.081528,0.04881748,62.12635,0,1156,7.1344,-4.008137,9.956799,43690,3.417224,1023.336,0.0002440874,7.918,1021.535,0,276.727836157,-5.048,275.3902,7.1932,7.23479006098,1.80078
2022-03-01T21:29:04Z,13.77979,-5.046375,0.05558449,64.1326,0,1156,5.1156,-4.182098,8.6044,43690,3.890914,1023.336,0.0002779224,6.076,1021.535,0,274.044255765,-4.978,272.0231,6.2524,6.16276579268,1.80078
2022-03-01T21:44:05Z,13.79254,-5.24802,0.02271714,66.58248,0,1156,4.4492,-4.462246,7.1344,43690,1.5902,1023.336,0.0001135857,6.017,1021.535,0,279.191202413,-5.215,284.1479,5.3704,5.37828780488,1.80078
2022-03-01T21:59:06Z,13.80847,-5.519501,0.00725015,68.41746,0,1156,4.3316,-4.853096,7.016799,43690,0.5075106,1023.336,3.625075e-05,5.41,1021.535,0,284.160951027,-5.45,294.6662,4.3022,4.3170195,1.80078
2022-03-01T22:14:07Z,13.8279,-5.853104,0.0009666867,69.07526,0,1156,2.8812,-5.329796,5.194,43690,0.06766807,1021.269,4.833434e-06,3.038,1019.468,0,288.482292346,-5.65,292.9579,3.6358,3.57986829268,1.80078
2022-03-01T22:29:07Z,13.85086,-5.919186,0.0,70.33628,0,1156,2.9204,-5.91946,3.5084,43690,0.0,1021.269,0.0,3.567,1019.468,0,293.943516156,-5.953,279.1746,1.9012,2.07449268049,1.80078
2022-03-01T22:44:08Z,13.86241,-6.156994,0.0,70.50626,0,1156,1.3132,-6.466202,3.332,43690,0.0,1021.269,0.0,2.842,1019.468,0,278.507673414,-5.919,290.5136,2.3912,2.3197317061,1.80078
2022-03-01T22:59:08Z,13.88622,-5.472084,0.0,68.64802,0,1156,3.8416,-7.017456,4.998,43690,0.0,1021.269,0.0,4.782,1019.468,0,252.996594005,-5.54,246.1375,2.4304,2.61444877683,1.80078
2022-03-01T23:14:09Z,13.88644,-5.573231,0.0,68.20782,0,1156,2.6852,-7.171086,5.1352,43690,0.0,1021.801,0.0,3.175,1020.0,0,261.743379609,-5.506,241.9206,3.3712,3.25790243902,1.80078
2022-03-01T23:29:10Z,13.88694,-6.013912,0.0,65.79706,0,1156,0.4508,-7.281788,4.1552,43690,0.0,1021.801,0.0,1.705,1020.0,0,228.980387525,-5.606,43.41009,2.94,2.57190243415,1.80078
2022-03-01T23:44:10Z,13.88772,-6.895111,0.0,69.4047,0,1156,1.0584,-7.372158,1.4308,43690,0.0,1021.801,0.0,1.313,1020.0,0,122.026156153,-6.76,120.3699,0.9799999,0.913551207317,1.80078
2022-03-01T23:59:11Z,13.88843,-6.48597,0.0,68.2517,0,1156,0.8428,-7.394753,1.9992,43690,0.0,1021.801,0.0,1.372,1020.0,0,96.7101442315,-6.792,97.90685,1.0388,1.01561462561,1.80078
2022-03-02T00:14:11Z,13.88318,-5.806206,0.0,56.42316,0,1156,0.0784,-7.415085,1.7248,43690,0.0,1021.562,0.0,1.49,1019.762,0,49.1219304609,-5.772,54.00919,0.7056,0.676439018293,1.80078
2022-03-02T00:29:12Z,13.8888,-6.145569,0.0,60.67286,0,1156,0.1764,-7.482864,1.8032,43690,0.0,1021.562,0.0,1.686,1019.762,0,70.5682494947,-5.908,146.2712,0.882,0.840648770732,1.80078
2022-03-02T00:44:13Z,13.88327,-5.602215,0.0,61.18183,0,1156,0.3136,-7.415085,1.6268,43690,0.0,1021.562,0.0,1.45,1019.762,0,58.2971976965,-5.534,15.49328,0.6174,0.6508634,1.80078
2022-03-02T00:59:13Z,13.86504,-5.264633,0.0,57.98291,0,1156,1.5092,-7.082978,1.9404,43690,0.0,1021.562,0.0,1.627,1019.762,0,19.2289882024,-5.195,43.33968,0.5782,0.650624385366,1.80078
2022-03-02T01:14:14Z,13.85881,-5.267544,0.0,58.24993,0,1156,1.5092,-6.730534,3.3712,43690,0.0,1022.088,0.0,2.234,1020.287,0,92.1971115019,-5.2,93.01806,0.9897999,1.12699999512,1.80078
2022-03-02T01:29:14Z,13.84723,-4.961758,0.0,53.25405,0,1156,2.058,-6.423275,2.646,43690,0.0,1022.088,0.0,2.568,1020.287,0,78.6531569449,-4.962,57.74105,0.92119995,1.04740486829,1.80078
2022-03-02T01:44:15Z,13.84571,-5.000851,0.0,53.95985,0,1156,0.3528,-6.181534,2.8224,43690,0.0,1022.088,0.0,1.235,1020.287,0,59.4916494861,-4.933,177.0097,0.89179995,0.96685364878,1.80078
2022-03-02T01:59:16Z,13.84536,-4.593926,0.0,53.38094,0,1156,0.9408,-6.07309,2.3324,43690,0.0,1022.088,0.0,2.45,1020.287,0,53.4440401223,-4.594,63.81078,0.9604,0.961356089024,1.80078
2022-03-02T02:14:16Z,13.83429,-4.492,0.0,52.56543,0,1156,0.7056,-5.853943,3.1164,43690,0.0,1021.393,0.0,1.294,1019.593,0,49.3102658738,-4.39,65.52364,0.8428,0.895146328049,1.80078
2022-03-02T02:29:17Z,13.82322,-4.220169,0.0,53.65276,0,1156,0.49,-5.526352,1.9012,43690,0.0,1021.393,0.0,1.196,1019.593,0,39.6681577605,-4.152,20.67517,0.6272,0.650863403659,1.80078
2022-03-02T02:44:17Z,13.81215,-3.846401,0.0,55.58956,0,1156,0.7644,-5.133244,3.0772,43690,0.0,1021.393,0.0,2.842,1019.593,0,52.2566564508,-3.812,85.49918,0.93099995,1.05816096707,1.80078
2022-03-02T02:59:18Z,13.79378,-4.155426,0.0,57.75903,0,1156,1.9208,-4.787578,4.9588,43690,0.0,1021.393,0.0,5.076,1019.593,0,297.741483287,-4.054,260.7202,0.97019995,1.32276097195,1.80078
2022-03-02T03:14:18Z,13.79222,-4.057278,0.0,55.54476,0,1156,3.4692,-4.57069,6.2132,43690,0.0,1020.025,0.0,3.842,1018.224,0,237.758792601,-3.922,225.5735,3.5378,3.1620536561,1.80078
2022-03-02T03:29:19Z,13.79283,-3.888554,0.0,61.82769,0,1156,3.8808,-4.376392,6.0956,43690,0.0,1020.025,0.0,5.37,1018.224,0,249.892806163,-3.753,244.5486,4.2336,4.11623902439,1.80078
2022-03-02T03:44:20Z,13.78635,-3.549496,0.0,63.45717,0,1156,4.9392,-4.202431,5.8016,43690,0.0,1020.025,0.0,5.351,1018.224,0,244.006858551,-3.482,243.1935,4.3022,4.19296585366,1.80078
2022-03-02T03:59:20Z,13.78039,-3.585659,0.0,64.43844,0,1156,3.5084,-4.030727,5.292,43690,0.0,1020.025,0.0,3.842,1018.224,0,249.812581149,-3.517,217.2523,3.6946,3.66185365854,1.80078
2022-03-02T04:14:21Z,13.77436,-3.213223,0.0,65.55723,0,1156,4.2336,-3.859024,6.37,43690,0.0,1019.523,0.0,6.292,1017.722,0,235.838164067,-3.179,234.3199,4.0376,4.05409268293,1.80078
2022-03-02T04:29:21Z,13.76873,-3.009499,0.0,67.18752,0,1156,5.5272,-3.66473,8.427999,43690,0.0,1019.523,0.0,6.331,1017.722,0,238.814961138,-2.942,237.8404,4.361,4.45206828049,1.80078
2022-03-02T04:44:22Z,13.76873,-3.213303,0.0,68.41034,0,1156,1.1564,-3.470432,6.566,43690,0.0,1019.523,0.0,2.724,1017.722,0,234.158478726,-3.077,136.4049,2.793,3.00836097561,1.80078
2022-03-02T04:59:23Z,13.76873,-3.349174,0.0,68.20654,0,1156,1.2152,-3.407173,2.8224,43690,0.0,1019.523,0.0,3.254,1017.722,0,83.5237899943,-3.247,100.9531,0.93099995,0.9780878,1.80078
2022-03-02T05:14:23Z,13.76873,-3.111401,0.0,68.0367,0,1156,1.274,-3.427509,4.018,43690,0.0,1018.037,0.0,1.999,1016.237,0,94.4296844909,-3.077,68.00952,2.4206,2.19830731585,1.80078
2022-03-02T05:29:24Z,13.76873,-2.703793,0.0,69.05573,0,1156,2.3912,-3.36425,3.0772,43690,0.0,1018.037,0.0,3.077,1016.237,0,55.9998219319,-2.636,102.9307,1.1662,1.09783901829,1.80078
2022-03-02T05:44:21Z,13.75767,-2.873631,0.0,69.87095,0,1156,1.5092,-3.212879,5.0372,43690,0.0,1018.037,0.0,3.508,1016.237,0,96.9865195041,-2.874,51.77888,3.0282,2.76154516048,1.80078
2022-03-02T05:59:23Z,13.74661,-3.009499,0.0,71.46742,0,1156,3.9396,-3.020844,5.3116,43690,0.0,1018.037,0.0,3.508,1016.237,0,103.281793842,-2.942,110.7687,3.3026,3.3516,1.80078
2022-03-02T06:14:25Z,13.74614,-3.281239,0.0,73.84513,0,1156,5.8212,-2.84914,8.1144,43690,0.0,1016.488,0.0,6.938,1014.688,0,112.205514326,-3.247,112.1192,4.459,4.56622351176,1.80078
2022-03-02T06:29:20Z,13.74659,-3.757439,0.0,79.04071,0,1156,3.5868,-2.826546,7.4284,43690,0.0,1016.488,0.0,5.312,1014.688,0,119.876956999,-3.689,124.1754,4.2336,4.24693726627,1.80078
2022-03-02T06:44:21Z,13.74651,-3.723129,0.0,82.74387,0,1156,2.2932,-2.892067,7.2324,43690,0.0,1016.488,0.0,6.605,1014.688,0,121.496138797,-3.723,146.6051,4.4002,4.36895528824,1.80078
2022-03-02T06:59:22Z,13.7466,-3.553314,0.0,83.42317,0,1156,6.1152,-2.892067,7.2324,43690,0.0,1016.488,0.0,7.232,1014.688,0,118.718873257,-3.384,112.9623,4.606,4.53128939412,1.80078
2022-03-02T07:14:22Z,13.7466,-3.62093,0.0,86.27716,0,1156,4.3708,-2.84914,8.0752,43690,0.0,1015.343,0.0,7.860001,1013.543,0,119.973042565,-3.485,125.697,5.1352,5.13416232353,1.80078
2022-03-02T07:29:22Z,13.75194,-3.961819,0.0,88.10843,0,1156,6.879599,-2.84914,8.251599,43690,0.0,1015.343,0.0,7.487001,1013.543,0,114.838953692,-3.724,117.9274,5.096,5.23654347059,1.80078
2022-03-02T07:44:23Z,13.75213,-3.65506,0.0,89.60556,0,1156,5.7428,-2.869473,9.5452,43690,0.0,1015.343,0.0,7.860001,1013.543,0,113.991145088,-3.519,143.5669,6.2524,6.33783275882,1.80078
2022-03-02T07:59:23Z,13.75184,-3.383499,0.0,90.48827,0,1156,4.704,-2.84914,8.8984,43690,0.0,1015.343,0.0,5.939,1013.543,0,116.678508038,-3.383,102.7609,5.4586,5.46413407059,1.80078
2022-03-02T08:14:25Z,13.75156,-3.383316,0.0,91.16806,0,1156,6.8404,-2.783623,9.408,43690,0.0,1013.468,0.0,8.37,1011.667,0,117.041013641,-3.349,147.1121,6.3014,6.38683285882,1.80078
2022-03-02T08:29:26Z,13.74588,-3.555168,0.0,92.01216,0,1156,4.508,-2.740696,9.133599,43690,0.0,1013.468,0.0,6.938,1011.667,0,120.426664202,-3.487,101.9599,5.4684,5.4792376,1.80078
2022-03-02T08:44:27Z,13.74576,-3.554947,0.0,92.35237,0,1156,4.0376,-2.677437,9.2316,43690,0.0,1013.468,0.0,7.213,1011.667,0,117.749742588,-3.487,158.7768,5.6448,5.48407997647,1.80078
2022-03-02T08:59:23Z,13.7448,-3.250652,0.0,92.92626,0,1156,7.6832,-2.654842,8.6632,43690,0.0,1013.468,0.0,7.938,1011.667,0,118.984130469,-3.183,95.80744,5.7624,5.82270765089,1.80078
2022-03-02T09:14:24Z,13.73904,-3.117352,0.0,93.22548,0,1156,3.822,-2.568993,10.3684,43690,0.0,1011.388,0.0,9.019999,1009.587,0,117.608780421,-3.049,73.52042,6.0172,6.03080462353,1.80078
2022-03-02T09:29:24Z,13.73322,-3.049591,0.0,93.7345,0,1156,5.4096,-2.462807,8.6632,43690,0.0,1011.388,0.0,7.017,1009.587,0,121.626742988,-2.948,103.203,4.3512,4.74216230588,1.80078
2022-03-02T09:44:24Z,13.73306,-2.812336,0.0,94.14082,0,1156,4.7236,-2.356625,8.9964,43690,0.0,1011.388,0.0,6.664,1009.587,0,118.463419831,-2.778,114.6552,5.341,5.30894817059,1.80078
2022-03-02T09:59:25Z,13.72755,-2.74519,0.0,94.47847,0,1156,4.4492,-2.24818,9.074799,43690,0.0,1011.388,0.0,7.174,1009.587,0,114.202085968,-2.745,134.3282,5.4194,5.39945405294,1.80078
2022-03-02T10:14:26Z,13.72079,-2.610737,0.0,94.71267,0,1156,7.3304,-2.121662,8.7612,43690,0.0,1010.756,0.0,7.918,1008.956,0,117.465925978,-2.577,124.944,5.3116,5.32462821176,1.80078
2022-03-02T10:29:27Z,13.72015,-2.477665,0.0,94.90943,0,1156,3.332,-1.992886,8.5456,43690,0.0,1010.756,0.0,5.664,1008.956,0,121.94809232,-2.444,94.36407,4.5276,4.65015763529,1.80078
2022-03-02T10:44:28Z,13.71983,-2.037319,0.0,95.17835,0,1156,4.8216,-1.843773,7.84,43690,0.0,1010.756,0.0,6.742,1008.956,0,120.468494019,-2.071,125.7027,4.459,4.36711058235,1.80078
2022-03-02T10:59:29Z,13.71429,-2.003384,0.0004831241,95.41599,0,1156,5.6644,-1.651737,7.7812,43690,0.03381868,1010.756,2.41562e-06,7.468001,1008.956,0,121.392558908,-1.868,143.9046,4.6648,4.68416940588,1.80078
2022-03-02T11:14:26Z,13.70876,-1.867561,0.001932396,95.55181,0,1156,5.9584,-1.500366,8.918,43690,0.1352677,1008.979,9.66198e-06,8.059999,1007.178,0,120.312792567,-1.732,112.4428,4.9,5.05250883432,1.80078
2022-03-02T11:29:29Z,13.70876,-1.731735,0.003864787,95.75554,0,1156,5.7624,-1.330925,9.074799,43690,0.2705351,1008.979,1.932393e-05,8.37,1007.178,0,118.619147486,-1.562,113.0214,5.635,5.73438346471,1.80078
2022-03-02T11:44:30Z,13.70323,-1.629868,0.00869577,95.7895,0,1156,8.3692,-1.181812,11.4464,43690,0.6087039,1008.979,4.347885e-05,9.9,1007.178,0,121.475826982,-1.596,100.0268,7.056,7.07294808235,1.80078
2022-03-02T11:59:26Z,13.6977,-1.561958,0.009661052,95.89138,0,1156,4.4296,-1.053036,11.0348,43690,0.6762737,1008.979,4.830526e-05,7.644001,1007.178,0,117.114167452,-1.494,115.143,7.4088,7.30082584615,1.80078
2022-03-02T12:14:28Z,13.6977,-1.528,0.01352488,95.95928,0,1156,6.6836,-0.9265175,10.2704,43690,0.9467418,1007.349,6.762441e-05,8.04,1005.549,0,115.963189648,-1.426,107.6452,7.1344,7.01437861765,1.80078
2022-03-02T12:29:30Z,13.68664,-1.018662,0.0164226,96.06115,0,1156,7.898799,-0.7774086,9.133599,43690,1.149582,1007.349,8.211298e-05,8.639999,1005.549,0,114.053996778,-1.019,113.817,6.6836,6.71069401176,1.80078
2022-03-02T12:44:31Z,13.67463,-0.7476158,0.0260829,96.02574,0,1156,6.5072,-0.5853691,8.9572,43690,1.825803,1007.349,0.0001304145,6.644,1005.549,0,110.625554936,-0.68,138.1888,6.6052,6.5721105,1.80078
2022-03-02T12:59:28Z,13.66742,-0.3453026,0.0376753,96.08116,0,1156,4.9588,-0.3074837,8.3104,43690,2.637271,1007.349,0.0001883765,6.096,1005.549,0,101.667018904,-0.277,113.5836,6.076,5.97626030178,1.80078
2022-03-02T13:14:31Z,13.64898,0.2593498,0.01980368,96.23546,0,1156,3.3712,0.0314064,7.643999,43690,1.386258,1005.798,9.901842e-05,4.704,1003.997,0,96.8492982403,0.294,142.7038,3.2928,3.34007058176,1.80078
2022-03-02T13:29:30Z,13.64332,0.4278259,0.03960737,96.26642,0,1156,5.0176,0.3296242,5.4684,43690,2.772516,1005.798,0.0001980368,4.488,1003.997,0,92.9408577789,0.53,102.6202,2.7832,2.79131834083,1.80078
2022-03-02T13:44:32Z,13.63777,0.5295486,0.0492677,96.26617,0,1156,1.0192,0.6075134,4.9588,43690,3.448739,1005.798,0.0002463385,3.273,1003.997,0,89.4998967624,0.53,41.52514,1.568,1.76227058412,1.80078
2022-03-02T13:59:30Z,13.63224,0.8011055,0.03670703,96.26617,0,1156,1.2348,0.8831406,3.4496,43690,2.569492,1005.798,0.0001835352,2.293,1003.997,0,50.4867819579,0.835,58.70878,1.2936,1.25486390118,1.80078
2022-03-02T14:14:32Z,13.62671,0.936882,0.03187427,96.23222,0,1156,2.3912,1.138439,5.0568,43690,2.231199,1005.141,0.0001593713,3.254,1003.34,0,228.07518346,1.073,224.0863,1.323,1.53871528941,1.80078
2022-03-02T14:29:29Z,13.62671,1.242382,0.03283539,96.09644,0,1156,2.2736,1.350807,5.684,43690,2.298477,1005.141,0.0001641769,1.646,1003.34,0,144.764545428,1.31,229.3402,0.8428,0.952397623669,1.80078
2022-03-02T14:44:30Z,13.61566,1.174492,0.08401684,95.99462,0,1156,3.4692,1.522511,4.4296,43690,5.881178,1005.141,0.0004200842,4.43,1003.34,0,187.271787631,1.208,183.7662,0.5782,0.886842348235,1.80078
2022-03-02T14:59:32Z,13.61013,1.750267,0.1178163,95.95773,0,1156,4.116,1.798138,5.4488,43690,8.247137,1005.141,0.0005890812,5.449,1003.34,0,210.140862899,1.853,191.5207,3.3418,3.30582823529,1.80078
2022-03-02T15:14:33Z,13.59156,2.119427,0.1849329,95.3372,0,1156,4.1356,2.202545,5.8408,43690,12.9453,1004.713,0.0009246643,5.841,1002.912,0,210.614326136,2.188,221.4545,4.4296,4.39985411765,1.80078
2022-03-02T15:29:31Z,13.57466,2.389328,0.1747929,95.09599,0,1156,5.6644,2.735729,6.468,43690,12.23551,1004.713,0.0008739646,6.409,1002.912,0,223.741542549,2.525,228.3617,4.8804,4.9883739645,1.80078
2022-03-02T15:44:34Z,13.55615,2.587997,0.3929837,94.60983,0,1156,9.6628,3.185318,11.0152,43690,27.50886,1004.713,0.001964919,9.92,1002.912,0,234.799735161,2.724,240.6229,8.33,8.15936454118,1.80078
2022-03-02T15:59:33Z,13.53921,2.585754,0.3799416,93.92619,0,1156,8.7024,3.69817,12.2892,43690,26.59591,1004.713,0.001899708,10.09,1002.912,0,240.30710573,2.586,241.9834,9.4668,9.56329214201,1.80078
2022-03-02T16:14:34Z,13.53367,2.44997,0.3784309,92.94202,0,1156,7.859599,4.21328,10.3684,43690,26.49017,1003.505,0.001892155,9.51,1001.704,0,243.684892917,2.586,239.0198,8.878799,8.8683617574,1.80078
2022-03-02T16:29:31Z,13.50858,2.782509,0.3948407,91.09518,0,1156,7.252,4.771313,8.6632,43690,27.63885,1003.505,0.001974203,7.448001,1001.704,0,249.208054795,3.02,266.0573,6.9188,6.94883770414,1.80078
2022-03-02T16:44:33Z,13.49598,3.182041,0.4571077,87.75486,0,1156,6.8208,5.202831,7.4872,43690,31.99754,1003.505,0.002285539,7.389001,1001.704,0,269.252594887,3.284,266.5163,6.0956,5.99863760588,1.80078
2022-03-02T16:59:34Z,13.47936,3.622806,0.3900138,83.64995,0,1156,4.0376,5.636604,7.252,43690,27.30096,1003.505,0.001950069,5.88,1001.704,0,252.349102973,3.758,246.6456,6.027,5.90974585882,1.80078
2022-03-02T17:14:36Z,13.46831,4.572605,0.7509324,77.91725,0,1156,5.978,6.113308,6.879599,43690,52.56527,1004.067,0.003754662,6.88,1002.266,0,243.160621045,4.573,237.4695,5.488,5.55302585882,1.80078
2022-03-02T17:29:32Z,13.44424,3.887558,0.394709,76.10795,0,1156,6.37,6.831753,7.0952,43690,27.62963,1004.067,0.001973545,6.801,1002.266,0,233.31008501,3.99,234.4237,6.1544,6.10847334911,1.80078
2022-03-02T17:44:34Z,13.44841,2.525288,0.2045916,79.99773,0,1156,7.0952,7.114155,7.310799,43690,14.32141,1004.067,0.001022958,7.311,1002.266,0,245.235642439,2.796,266.3192,5.831,5.81359057647,1.80078
2022-03-02T17:59:37Z,13.47677,2.089096,0.1138764,79.1587,0,1156,4.6844,6.504162,7.8792,43690,7.97135,1004.067,0.0005693822,5.527,1002.266,0,270.857458462,2.293,295.7262,5.9388,5.60098819412,1.80078
2022-03-02T18:14:34Z,13.50129,1.824482,0.1090759,77.95025,0,1156,4.5864,5.699864,8.878799,43690,7.635313,1003.818,0.0005453795,6.605,1002.017,0,280.073307354,1.96,274.8449,4.7824,4.79318576331,1.80078
2022-03-02T18:29:36Z,13.5125,1.553585,0.1660449,78.01898,0,1156,4.5864,5.008534,7.3304,43690,11.62315,1003.818,0.0008302246,5.782,1002.017,0,275.233784372,1.621,254.7618,4.7726,4.85572705294,1.80078
2022-03-02T18:44:33Z,13.52355,1.655647,0.1641146,76.73051,0,1156,3.1164,4.622204,6.9384,43690,11.48803,1003.818,0.0008205732,4.253,1002.017,0,278.601963678,1.69,280.4375,4.214,4.28729704142,1.80078
2022-03-02T18:59:37Z,13.52965,1.219078,0.0878496,76.73873,0,1156,4.3708,4.32172,6.2916,43690,6.149472,1003.818,0.000439248,5.488,1002.017,0,283.155107878,1.285,269.0985,4.4394,4.31303764706,1.80078
2022-03-02T19:14:35Z,13.54429,1.295208,0.1477032,73.6663,0,1156,4.3904,3.955723,7.212799,43690,10.33922,1005.278,0.0007385158,6.39,1003.477,0,282.389967657,1.363,291.4373,4.3904,4.42252543195,1.80078
2022-03-02T19:29:38Z,13.54471,1.262276,0.08688422,74.34675,0,1156,4.7432,3.78402,7.546,43690,6.081895,1005.278,0.0004344211,6.938,1003.477,0,281.830696241,1.364,281.2051,4.1944,4.20016468824,1.80078
2022-03-02T19:44:37Z,13.55577,0.8211632,0.1593059,74.5843,0,1156,6.37,3.485798,7.8204,43690,11.15141,1005.278,0.0007965293,6.88,1003.477,0,272.26186185,0.8890001,288.987,5.488,5.49449463905,1.80078
2022-03-02T19:59:35Z,13.56129,0.719368,0.07531228,75.90769,0,1156,4.2532,3.185318,8.3888,43690,5.27186,1005.278,0.0003765614,7.232,1003.477,0,271.572490909,0.821,273.7125,5.9192,5.91977983432,1.80078
2022-03-02T20:14:39Z,13.56682,0.719368,0.08303853,72.07328,0,1156,1.96,2.930023,6.6836,43690,5.812697,1005.947,0.0004151926,4.312,1004.147,0,288.567122571,0.7870001,323.0535,4.067,4.01338822941,1.80078
2022-03-02T20:29:36Z,13.57931,0.5863762,0.06373029,70.14385,0,1156,2.94,2.735729,7.8204,43690,4.461121,1005.947,0.0003186515,6.566,1004.147,0,295.338991251,0.586,274.7429,4.0572,4.05000944379,1.80078